This demonstration page uses our WeatherBlox Daily Observations layout. Learn more.

Left ArrowRight Arrow

38.88101, -77.10428

Hourly Observations for March 25, 2019

Temp ( °F °C ) Dew Point ( °F °C ) Humidity (%) Winds ( mph kmh ) Pressure ( in mb ) Visibility ( mi km ) Precip ( " mm )
12:52 am 00:52 Cloudy 53 11.7 35 1.7 51 51 N 5 7 30.06 1018 10 16.0934 0 0
1:52 am 01:52 Cloudy 51 10.6 37 2.8 59 59 NE 8 13 30.05 1018 10 16.0934 0 0
2:52 am 02:52 Cloudy 51 10.6 37 2.8 59 59 NE 3 6 30.05 1018 10 16.0934 0 0
3:52 am 03:52 Cloudy 51 10.6 38 3.3 61 61 ENE 5 7 30.03 1017 10 16.0934 0 0
4:52 am 04:52 Mostly Cloudy 50 10 39 3.9 66 66 NE 5 7 30.03 1017 10 16.0934 0 0
5:52 am 05:52 Mostly Cloudy 50 10 37 2.8 61 61 Calm 30.02 1017 10 16.0934 0 0
6:52 am 06:52 Mostly Cloudy 49 9.4 38 3.3 66 66 Calm 30.02 1017 10 16.0934 0 0
7:52 am 07:52 Partly Cloudy 49 9.4 39 3.9 69 69 NE 3 6 30.04 1017 10 16.0934 0 0
8:52 am 08:52 Partly Cloudy 53 11.7 38 3.3 57 57 NE 3 6 30.04 1017 10 16.0934 0 0
9:52 am 09:52 Partly Cloudy 59 15 37 2.8 44 44 N 3 6 30.04 1017 10 16.0934 0 0
10:52 am 10:52 Mostly Cloudy 62 16.7 36 2.2 38 38 NE 6 9 30.02 1017 10 16.0934 0 0
11:52 am 11:52 Cloudy 63 17.2 35 1.7 35 35 NE 3 6 30.02 1017 10 16.0934 0 0
12:52 pm 12:52 Cloudy 64 17.8 35 1.7 34 34 N 5 7 30.02 1017 10 16.0934 0 0
1:52 pm 13:52 Cloudy 63 17.2 38 3.3 40 40 ENE 7 11 30.01 1016 10 16.0934 0 0
2:52 pm 14:52 Cloudy 62 16.7 38 3.3 41 41 NE 16 26 29.98 1015 10 16.0934 0 0
3:34 pm 15:34 Cloudy with Light Rain 59 15 39 3.9 48 48 ENE 13 20 30 1016 10 16.0934 0 0.0254
3:52 pm 15:52 Cloudy 60 15.6 38 3.3 44 44 ENE 15 24 29.98 1015 10 16.0934 0 0.0254
4:52 pm 16:52 Cloudy 58 14.4 38 3.3 48 48 NE 17 28 29.96 1015 10 16.0934 0 0
5:52 pm 17:52 Cloudy 56 13.3 39 3.9 53 53 NNE 16 26 29.99 1016 10 16.0934 0 0
6:52 pm 18:52 Cloudy with Light Rain 53 11.7 42 5.6 66 66 NNE 14 22 30.02 1017 10 16.0934 0 0.0254
7:52 pm 19:52 Cloudy 49 9.4 41 5 74 74 NE 14 22 30.04 1017 10 16.0934 0 0.0254
8:34 pm 20:34 Cloudy 48 8.9 40 4.4 74 74 NNE 15 24 30.05 1018 10 16.0934 0 0
8:46 pm 20:46 Cloudy 48 9 39 4 71 71 NE 16 26 30.05 1018 10 16.0934 0 0
8:52 pm 20:52 Cloudy 48 8.9 40 4.4 74 74 NE 15 24 30.05 1018 10 16.0934 0 0
9:12 pm 21:12 Cloudy 48 8.9 40 4.4 74 74 NE 14 22 30.06 1018 10 16.0934 0 0
9:29 pm 21:29 Cloudy 47 8.3 39 3.9 74 74 NE 17 28 30.06 1018 10 16.0934 0 0
9:52 pm 21:52 Cloudy 47 8.3 39 3.9 74 74 NE 14 22 30.07 1018 10 16.0934 0 0
10:11 pm 22:11 Cloudy 47 8.3 39 3.9 74 74 NNE 16 26 30.08 1019 10 16.0934 0 0
10:52 pm 22:52 Cloudy 47 8.3 39 3.9 74 74 NNE 16 26 30.08 1019 10 16.0934 0 0
11:52 pm 23:52 Cloudy 46 7.8 38 3.3 73 73 NNE 14 22 30.09 1019 10 16.0934 0 0

Powered by AerisWeather